sat.trackr.live / text

‹ back to catalog

STARLINK-30803

NORAD 58157 · 2023-166H

PAYLOAD ACTIVE UNKNOWN

§ Identity

Operator
Country
US
Launch date
2023-10-29
Launch site
AFWTR
Launch vehicle
Mass (kg)
RCS (m²)

Purposes: comms

External: N2YO · Heavens-Above · Gunter

§ Orbital elements

Epoch: 2026-09-20T20:52:18.593760Z

Period
94.01 min
Inclination
53.1604°
Eccentricity
0.0001168
Mean motion
15.31710075 rev/d
Perigee alt
469.9 km
Apogee alt
471.5 km
Semi-major
6,848.8 km
B*
7.3498e-5
RAAN
31.4894°
Arg perigee
95.3265°
Mean anomaly
264.7870°
Rev number
16,293

§ Raw data

STARLINK-308031 58157U 23166H   26263.86965965  .00001917  00000+0  73498-4 0  99992 58157  53.1604  31.4894 0001168  95.3265 264.7870 15.31710075162937

JSON: /api/v1/satellites/58157 · /tle

For live sub-satellite position, see the globe view (requires WebGL).

§ Visibility from observer

Set your observer location to see the next 7 days of passes ≥ 10°. The values pass through the URL so the page stays shareable.

No JS? Fill the form by hand. The geolocation button needs JavaScript.